Pasco, WA
on Monday, December 31, 2012

Monday
Previous Day Next Day
Daily Summary
 ActualAverageRecord
Temperature
Mean Temperature °F 32°F  
Max Temperature 32°F 39°F 57°F (1958)
Min Temperature 23°F 26°F 6°F (1990)
Degree Days
Heating Degree Days 37 32  
Month to date heating degree days 810 989  
Since 1 July heating degree days 1907 2216  
Cooling Degree Days 0 0  
Month to date cooling degree days 0 0  
Year to date cooling degree days 788 710  
Moisture
Dew Point 26°F   
Average Humidity 89    
Maximum Humidity 100    
Minimum Humidity 78    
Precipitation
Precipitation 0.00 in in 0.47 in (2005)
Month to date precipitation 1.21  
Year to date precipitation 9.77  
Snow
Snow 0.00 in in in ()
Snow Depth 0.00 in   
Wind
Wind Speed 2 mph   
Max Wind Speed 10 mph   
Max Gust Speed 12 mph   
Visibility 7 miles   
Events     

Key: T is trace of precipitation, MM is missing value
Source: NWS Daily Summary
Time(PST)TemperatureDew PointHumidity Pressure Visibility Wind DirectionWind SpeedGust SpeedPrecipitationEvents Conditions
12:07 AM 23.0°F 21.2°F 93% 30.38 in 1.8 miles Calm Calm - N/A   Scattered Clouds
12:11 AM 23.0°F 21.2°F 93% 30.38 in 1.0 miles Calm Calm - N/A   Mist
12:21 AM 23.0°F 21.2°F 93% 30.38 in 3.0 miles NNW 4.6 mph - N/A   Mostly Cloudy
12:27 AM 23.0°F 21.2°F 93% 30.38 in 2.0 miles NW 3.5 mph - N/A   Overcast
12:33 AM 23.0°F 21.2°F 93% 30.38 in 0.8 miles WNW 4.6 mph - N/A   Overcast
12:53 AM 24.1°F 23.0°F 96% 30.40 in 2.5 miles WNW 3.5 mph - N/A   Overcast
1:00 AM 24.8°F 23.0°F 93% 30.39 in 7.0 miles Calm Calm - N/A   Overcast
1:53 AM 25.0°F 24.1°F 96% 30.41 in 7.0 miles North 3.5 mph - N/A   Overcast
2:53 AM 26.1°F 24.1°F 92% 30.42 in 9.0 miles Calm Calm - N/A   Overcast
3:53 AM 27.0°F 25.0°F 92% 30.41 in 9.0 miles Calm Calm - N/A   Overcast
4:53 AM 27.0°F 25.0°F 92% 30.40 in 8.0 miles Calm Calm - N/A   Overcast
5:53 AM 28.0°F 25.0°F 88% 30.40 in 8.0 miles Calm Calm - N/A   Overcast
6:53 AM 28.0°F 26.1°F 92% 30.39 in 8.0 miles Calm Calm - N/A   Overcast
7:53 AM 28.0°F 27.0°F 96% 30.39 in 5.0 miles Calm Calm - N/A   Overcast
8:53 AM 28.9°F 27.0°F 92% 30.40 in 4.0 miles Calm Calm - N/A   Overcast
9:53 AM 28.9°F 27.0°F 92% 30.42 in 8.0 miles Calm Calm - N/A   Overcast
10:21 AM 30.2°F 28.4°F 93% 30.41 in 7.0 miles Calm Calm - N/A   Overcast
10:30 AM 30.2°F 28.4°F 93% 30.40 in 8.0 miles Calm Calm - N/A   Overcast
10:53 AM 30.9°F 28.0°F 89% 30.42 in 8.0 miles Calm Calm - N/A   Overcast
11:53 AM 30.9°F 27.0°F 85% 30.41 in 8.0 miles Calm Calm - N/A   Overcast
12:53 PM 30.9°F 27.0°F 85% 30.40 in 9.0 miles NW 3.5 mph - N/A   Overcast
1:53 PM 32.0°F 27.0°F 82% 30.41 in 8.0 miles Calm Calm - N/A   Overcast
2:53 PM 32.0°F 27.0°F 82% 30.43 in 9.0 miles NW 6.9 mph - N/A   Overcast
3:53 PM 30.9°F 28.0°F 89% 30.45 in 8.0 miles NW 8.1 mph - N/A   Overcast
4:53 PM 30.9°F 27.0°F 85% 30.46 in 8.0 miles NW 8.1 mph - N/A   Overcast
5:53 PM 30.9°F 27.0°F 85% 30.47 in 10.0 miles WNW 8.1 mph - N/A   Overcast
6:00 PM 30.2°F 26.6°F 86% 30.46 in 10.0 miles WNW 6.9 mph - N/A   Overcast
6:53 PM 30.9°F 27.0°F 85% 30.48 in 10.0 miles WNW 5.8 mph - N/A   Overcast
7:53 PM 30.9°F 27.0°F 85% 30.48 in 10.0 miles NW 9.2 mph - N/A   Overcast
8:53 PM 30.0°F 27.0°F 88% 30.50 in 10.0 miles SW 5.8 mph - N/A   Overcast
9:53 PM 30.0°F 27.0°F 88% 30.53 in 10.0 miles WNW 5.8 mph - N/A   Overcast
10:53 PM 30.0°F 26.1°F 85% 30.55 in 10.0 miles NW 4.6 mph - N/A   Overcast
11:53 PM 30.9°F 26.1°F 82% 30.56 in 10.0 miles Calm Calm - N/A   Overcast
Moon Phase
Dec. 31 Jan. 04 Jan. 11 Jan. 18 Jan. 26
Sunrise:07:39 AM (PST) Moon Rise:08:09 PM (PST)12/31
Sunset:04:20 PM (PST) Moon Set:09:11 AM (PST)12/31

Copyright © 2014 The Weather Underground, Inc.